Torna al catalogo

STARLINK-3095

AttivoComunicazioniVLEO
NORAD 49160·PAYLOAD·🇺🇸 United States

Lanciato Sep 14, 2021 da Vandenberg Space Force Base

Loading…

Prossimi Passaggi (prossime 24 ore)

TLE

AggiornatoSource: CelesTrak SupGP

Epoca: Sep 15, 2026, 01:29 UTC

1 49160C 21082AG  26258.06229167 -.00012334  00000+0 -10337-2 0  2587
2 49160  70.0020 176.9620 0003121 272.7313  21.8439 14.98335205    12

Traccia STARLINK-3095 in tempo reale con AllMySat

Download on the App Store